sat.trackr.live / text

‹ back to catalog

KUIPER-00024

NORAD 63738 · 2025-088Q

PAYLOAD ACTIVE UNKNOWN

§ Identity

Operator
Country
US
Launch date
2025-04-28
Launch site
AFETR
Launch vehicle
Mass (kg)
RCS (m²)

External: N2YO · Heavens-Above · Gunter

§ Orbital elements

Epoch: 2026-05-25T04:11:10.472064Z

Period
97.30 min
Inclination
51.9025°
Eccentricity
0.0000638
Mean motion
14.79933961 rev/d
Perigee alt
629.1 km
Apogee alt
630.0 km
Semi-major
7,007.7 km
B*
1.9889e-4
RAAN
114.9180°
Arg perigee
65.8335°
Mean anomaly
294.2694°
Rev number
5,938

§ Raw data

KUIPER-000241 63738U 25088Q   26145.17442676  .00001295  00000+0  19889-3 0  99992 63738  51.9025 114.9180 0000638  65.8335 294.2694 14.79933961 59385

JSON: /api/v1/satellites/63738 · /tle

For live sub-satellite position, see the globe view (requires WebGL).

§ Visibility from observer

Set your observer location to see the next 7 days of passes ≥ 10°. The values pass through the URL so the page stays shareable.

No JS? Fill the form by hand. The geolocation button needs JavaScript.